CW9259 Weather Reports


Display with metric or nautical units.
time (UTC)temp
F
wind
direction
speed
MPH
gust
MPH
rain 1hr
in
rain 24hr
in
rain mn
in
humidity
%
barometer
mb
20260901131559 86 101 3.0 7.0 0.00 0.00 0.00 43 1014.5
20260901130123 85 177 2.0 11.0 0.00 0.00 0.00 44 1014.6
20260901124601 85 211 3.0 6.0 0.00 0.00 0.00 42 1014.7
20260901123145 84 114 3.0 8.0 0.00 0.00 0.00 45 1014.8
20260901121604 84 134 6.0 11.0 0.00 0.00 0.00 44 1014.8
20260901120140 84 131 4.0 8.0 0.00 0.00 0.00 49 1014.8
20260901114557 84 39 4.0 9.0 0.00 0.00 0.00 46 1015.0
20260901113132 83 143 3.0 6.0 0.00 0.00 0.00 46 1015.1
20260901111558 83 125 4.0 7.0 0.00 0.00 0.00 44 1015.1
20260901110134 82 130 4.0 8.0 0.00 0.00 0.00 49 1015.3
20260901104602 83 119 3.0 8.0 0.00 0.00 0.00 43 1015.4
20260901103134 82 27 3.0 6.0 0.00 0.00 0.00 47 1015.6
20260901101606 82 160 4.0 9.0 0.00 0.00 0.00 48 1015.6
20260901100119 82 82 1.0 9.0 0.00 0.00 0.00 48 1015.7
20260901094557 81 135 4.0 7.0 0.00 0.00 0.00 50 1015.8
20260901093142 80 80 2.0 7.0 0.00 0.00 0.00 49 1015.8
20260901091600 79 137 1.0 5.0 0.00 0.00 0.00 48 1015.8
20260901090126 78 63 3.0 7.0 0.00 0.00 0.00 48 1015.8
20260901084559 77 111 3.0 9.0 0.00 0.00 0.00 52 1015.8
20260901083134 76 94 3.0 6.0 0.00 0.00 0.00 51 1015.6
20260901081602 76 42 4.0 12.0 0.00 0.00 0.00 49 1015.5
20260901080002 75 18 3.0 8.0 0.00 0.00 0.00 47 1015.1
20260901074557 74 108 4.0 7.0 0.00 0.00 0.00 54 1014.8
20260901073143 72 22 0.0 3.0 0.00 0.00 0.00 52 1014.7
20260901071559 71 13 1.0 3.0 0.00 0.00 0.00 59 1014.6
20260901070145 69 326 1.0 3.0 0.00 0.00 0.00 63 1014.6
20260901064610 67 325 0.0 2.0 0.00 0.00 0.00 66 1014.6
20260901063125 64 325 0.0 2.0 0.00 0.00 0.00 73 1014.5
20260901061607 62 325 1.0 2.0 0.00 0.00 0.00 83 1014.5
20260901060133 60 323 0.0 2.0 0.00 0.00 0.00 82 1014.4
20260901054558 59 322 0.0 2.0 0.00 0.00 0.00 82 1014.2
20260901053134 58 322 0.0 2.0 0.00 0.00 0.00 82 1014.1
20260901051600 58 322 1.0 2.0 0.00 0.00 0.00 80 1014.1
20260901050138 58 323 1.0 2.0 0.00 0.00 0.00 77 1013.9
20260901044620 58 316 2.0 4.0 0.00 0.00 0.00 76 1013.9
20260901043118 58 334 0.0 3.0 0.00 0.00 0.00 76 1013.7
20260901041557 59 331 1.0 3.0 0.00 0.00 0.00 75 1013.5
20260901040132 59 340 3.0 4.0 0.00 0.00 0.00 75 1013.4
20260901034558 59 355 3.0 4.0 0.00 0.00 0.00 77 1013.3
20260901033130 59 346 0.0 4.0 0.00 0.00 0.00 77 1013.2
20260901031600 60 302 2.0 5.0 0.00 0.00 0.00 73 1013.0
20260901030134 59 323 3.0 5.0 0.00 0.00 0.00 72 1013.1
20260901024602 58 314 3.0 6.0 0.00 0.00 0.00 74 1013.0
20260901023132 58 161 0.0 3.0 0.00 0.00 0.00 80 1013.1
20260901021610 59 161 0.0 3.0 0.00 0.00 0.00 79 1013.1
20260901020126 59 331 2.0 3.0 0.00 0.00 0.00 78 1012.9
20260901014557 59 342 1.0 5.0 0.00 0.00 0.00 78 1012.7
20260901013130 58 344 2.0 3.0 0.00 0.00 0.00 77 1012.7
20260901011657 58 277 1.0 4.0 0.00 0.00 0.00 77 1012.7
20260901010134 59 217 2.0 3.0 0.00 0.00 0.00 77 1012.6
20260901004559 59 233 2.0 3.0 0.00 0.00 0.00 76 1012.4
20260901004501 59 233 2.0 3.0 0.00 0.00 0.00 76 1012.5
20260901003143 60 252 1.0 3.0 0.00 0.00 0.00 75 1012.3
20260901001605 60 251 0.0 2.0 0.00 0.00 0.00 74 1012.2
20260901000137 61 259 1.0 3.0 0.00 0.00 0.00 73 1012.3
20260831234600 61 259 0.0 2.0 0.00 0.00 0.00 73 1012.2
20260831233137 62 259 1.0 2.0 0.00 0.00 0.00 73 1012.1
20260831231618 62 282 1.0 3.0 0.00 0.00 0.00 71 1012.2
20260831230002 62 348 1.0 4.0 0.00 0.00 0.00 70 1012.2
20260831224630 62 304 1.0 5.0 0.00 0.00 0.00 72 1012.1
20260831223134 63 250 2.0 4.0 0.00 0.00 0.00 75 1012.1
20260831221608 64 335 3.0 5.0 0.00 0.00 0.00 74 1012.1
20260831220132 64 290 1.0 4.0 0.00 0.00 0.00 75 1012.1
20260831214603 66 299 1.0 2.0 0.00 0.00 0.00 74 1012.1
20260831213135 66 350 2.0 5.0 0.00 0.00 0.00 71 1012.0
20260831211608 66 315 1.0 4.0 0.00 0.00 0.00 70 1011.9
20260831210003 66 291 1.0 3.0 0.00 0.00 0.00 72 1011.9
20260831204601 67 301 1.0 4.0 0.00 0.00 0.00 73 1011.7
20260831203132 67 284 0.0 3.0 0.00 0.00 0.00 73 1011.6
20260831201600 69 360 1.0 3.0 0.00 0.00 0.00 73 1011.4
20260831200142 69 336 4.0 5.0 0.00 0.00 0.00 74 1011.2
20260831194611 68 360 3.0 5.0 0.00 0.00 0.00 78 1011.2
20260831193200 70 98 1.0 4.0 0.00 0.00 0.00 76 1011.0
20260831191559 71 324 1.0 4.0 0.00 0.00 0.00 75 1010.8
20260831190145 72 302 1.0 3.0 0.00 0.00 0.00 74 1010.7
20260831184600 73 330 0.0 4.0 0.00 0.00 0.00 74 1010.4
20260831183130 74 338 2.0 4.0 0.00 0.00 0.00 72 1010.2
20260831181558 76 10 1.0 3.0 0.00 0.00 0.00 71 1010.0
20260831180127 78 10 0.0 2.0 0.00 0.00 0.00 69 1009.9
20260831174559 80 10 1.0 3.0 0.00 0.00 0.00 64 1009.7
20260831173127 82 340 0.0 2.0 0.00 0.00 0.00 61 1009.7
20260831171601 85 341 2.0 3.0 0.00 0.00 0.00 56 1009.7
20260831170142 88 53 3.0 7.0 0.00 0.00 0.00 49 1009.7
20260831164604 89 86 2.0 6.0 0.00 0.00 0.00 49 1009.7
20260831163132 90 69 4.0 8.0 0.00 0.00 0.00 48 1009.6
20260831161558 91 86 0.0 2.0 0.00 0.00 0.00 51 1009.6
20260831160137 92 136 0.0 2.0 0.00 0.00 0.00 45 1009.6
20260831154619 91 134 0.0 4.0 0.00 0.00 0.00 46 1009.8
20260831153133 91 218 1.0 3.0 0.00 0.00 0.00 46 1009.8
20260831151700 90 173 1.0 4.0 0.00 0.00 0.00 47 1009.9
20260831150130 89 118 2.0 6.0 0.00 0.00 0.00 47 1009.9
20260831144559 89 84 2.0 7.0 0.00 0.00 0.00 50 1010.0
20260831143135 89 225 1.0 5.0 0.00 0.00 0.00 50 1010.1
20260831141600 89 106 2.0 7.0 0.00 0.00 0.00 50 1010.2
20260831140138 88 130 4.0 8.0 0.00 0.00 0.00 51 1010.2
20260831134602 88 126 4.0 9.0 0.00 0.00 0.00 50 1010.3
20260831133139 88 45 6.0 11.0 0.00 0.00 0.00 52 1010.3